COSMOS 1275 DEB, 42117

Orbit data source: Space-Track

COSMOS 1275 DEB, 42117 is space debris in LEO originally from a launch on Thu, 04 Jun 1981 UTC launched from the Plesetsk Missile And Space Complex (PKMTR). Debris objects in space refer to the collection of defunct objects orbiting the Earth. Examples of debris include non-operational satellites, rocket bodies, and fragments generated from explosions, collisions, or faulty payload assembly.

Loading next visibility...
Identifier
42117, 1981-053QD
Orbit
LEO
Country
Flag of CISCIS
Related business
Manufacturer
Unknown
Mission
Spacecraft
Bus & Motor
Unknown
Mass
Unknown
Launch date (UTC)
1981-06-04 (45 years ago)
Launch vehicle
Unknown
Launch site
Plesetsk Missile And Space Complex (PKMTR)
Object type
Payload
Rocket body
Debris
Shape & HBR
Unknown shape, 0.1 m
Radar Cross Section
Small (<0.1 m²)

Expand to show TLE details & history
Last TLE update: 4 days ago

TLE from 4 days ago
0 COSMOS 1275 DEB
1 42117U 81053QD  26169.74807489  .00000729  00000-0  50461-3 0  9990
2 42117  82.9818  90.1674 0017132 318.0754  41.9102 13.97692528639234
Epoch: 2026-06-18T17:57Z
TLE epoch observation values (Epoch: 2026-06-18T17:57:13.670Z)
Latitude
-0.00004°
Longitude
-86.12652°
Altitude
895.455 km
Speed
7.409 km/s
True Right ascension
06h 00m 40s
True Declination
0° 00' 00"
Sunlit
Object was in daylight at epoch
Visualization orbit readout
Latitude
Unknown
Longitude
Unknown
Altitude
Unknown
Speed
Unknown
Apparent Right ascension
Unknown
Apparent Declination
Unknown
Sunlit
N/A
Visualization observer readout
Local Sidereal Time
21:49:31
Azimuth
Unknown
Elevation
Unknown
Doppler factor
Unknown
Orbital elements
Apogee altitude
911.379 km
Perigee altitude
886.445 km
Semi-major axis
7,277.049 km
Eccentricity
0.00171
Inclination
82.9818°
RAAN
90.1674°
Arg. of periapsis
318.0754°
True anomaly
42.04154°
Mean anomaly
41.9102°
Eccentric anomaly
41.97585°
Mean motion
3.49631 °/min
Orbital period
102.97 mins
BSTAR
0.00050461
Loading maneuver chart data...
Computing Atmospheric mass density...

Documentation

Showing up to 5 results
|